Regional Weather Roundup
Issued by NWS

Home | Current Version | Previous Version | Text Only | Print | Product List | Glossary On
Versions: 1 2 3 4 5 6 7 8 9 10 11 12 13 14 15 16 17 18 19 20 21 22 23 24 25 26 27 28 29 30 31 32 33 34 35 36 37 38 39 40 41 42 43 44 45 46 47 48 49 50
000
ASCA44 KEWX 231520
RWRMX

LATIN AMERICA AND CARIBBEAN REGIONAL WEATHER ROUNDUP
NATIONAL WEATHER SERVICE AUSTIN/SAN ANTONIO TX
1000 AM CDT SAT JUL 23 2016

NOTE: "FAIR" INDICATED FEW OR NO CLOUDS BELOW 12,000 FEET WITH NO
SIGNIFICANT WEATHER AND/OR OBSTRUCTIONS TO VISIBILITY.

BAJA CALIFORNIA

CITY           SKY/WX    TMP DP  RH WIND       PRES   REMARKS
LORETO         CLOUDY    91  75  59 CALM      29.87S HX 102
LA PAZ         PTSUNNY   84  72  65 CALM      29.94R
MEXICALI       MOSUNNY   90  73  58 SE18      29.81  BLWGDUSTHX  98
S.J. DEL CABO  LGT RAIN  82  72  69 N9        29.95R
TIJUANA        SUNNY     70  64  83 CALM      29.86

NORTHWESTERN MEXICO

CITY           SKY/WX    TMP DP  RH WIND       PRES   REMARKS
CULIACAN       CLOUDY    77  75  94 NE7       29.97
DURANGO        CLOUDY    59  59 100 CALM      30.31
GUAYMAS        PTSUNNY   86  77  74 CALM      29.87  HX  97
HERMOSILLO     PTSUNNY   86  72  62 SE8       29.96  HX  92
CD. JUAREZ     MOSUNNY   84  57  39 CALM      30.02
LOS MOCHIS     CLOUDY    81  72  74 E17       29.96
OBREGON        PTSUNNY   84  66  54 SE13      29.91

NORTHEASTERN MEXICO

CITY           SKY/WX    TMP DP  RH WIND       PRES   REMARKS
CHIHUAHUA      MOSUNNY   81  48  32 SE15      30.15
MATAMOROS      PTSUNNY   86  75  70 S5        29.97  HX  95
MONCLOVA       SUNNY     86  64  48 CALM      30.06
MONTERREY      SUNNY     82  70  65 N5        30.00S
NUEVO LAREDO   SUNNY     84  72  65 SE9       29.98
PIEDRAS NEGRAS SUNNY     88  73  62 SE6       30.01R HX  96
REYNOSA        MOSUNNY   86  72  62 S7        29.98  HX  92
SALTILLO       SUNNY     79  57  47 CALM      30.26R
TORREON        MOSUNNY   82  59  44 CALM      30.11
CD. VICTORIA   SUNNY     82  72  69 SE7       29.97

WESTERN MEXICO

CITY           SKY/WX    TMP DP  RH WIND       PRES   REMARKS
AGUASCALIENTES SUNNY     64  55  72 N5        30.33
COLIMA         PTSUNNY   73  68  83 CALM      30.09R
DEL BAJIO      MOSUNNY   68  55  64 CALM      30.35R
GUADALAJARA    MOSUNNY   66  61  82 N5        30.25  HAZE
MANZANILLO     PTSUNNY   81  75  83 N6        29.91
MAZATLAN       CLOUDY    77  73  88 N3        29.94R
P. VALLARTA    MOSUNNY   79  75  89 N5        29.95R
URUAPAN        CLOUDY    64  61  88 CALM      30.23R
ZACATECAS      MOSUNNY   64  52  63 CALM      30.36

CENTRAL MEXICO

CITY           SKY/WX    TMP DP  RH WIND       PRES   REMARKS
CUERNAVACA     PTSUNNY   68  66  94 CALM      30.21R FOG
MEXICO CITY    MOSUNNY   63  52  67 E8        30.37R
MORELIA        PTSUNNY   64  61  88 W2        30.29
POZA RICA      SUNNY     81  75  83 CALM      30.01R
PUEBLA         PTSUNNY   63  52  67 S7        30.39R
QUERETARO      PTSUNNY   64  55  72 E6        30.36R
S. LUIS POTOSI MOSUNNY   68  52  56 CALM      30.30
TAMPICO        SUNNY     84  72  65 CALM      29.96R
TOLUCA         PTSUNNY   57  55  94 SE8       30.42

SOUTHERN MEXICO

CITY           SKY/WX    TMP DP  RH WIND       PRES   REMARKS
ACAPULCO       CLOUDY    81  75  83 NW7       29.97R
B. DE HUATULCO CLOUDY    77  57  50 CALM      30.03
OAXACA         CLOUDY    64  59  82 CALM      30.31R
P. ESCONDIDO   MOSUNNY   79  73  83 CALM      30.06R
VERACRUZ       MOSUNNY   82  75  78 W3        29.96S
ZIHUATANEJO    DRIZZLE   77  75  94 E2        29.98

YUCATAN PENINSULA

CITY           SKY/WX    TMP DP  RH WIND       PRES   REMARKS
CAMPECHE       MOSUNNY   82  77  83 SE12      29.96R HX  91
CANCUN         PTSUNNY   86  77  74 E10       30.01R HX  97
CHETUMAL       MOSUNNY   86  77  74 CALM      29.99  HX  97
CD. DEL CARMEN MOSUNNY   82  72  69 SE14      29.98
COZUMEL        MOSUNNY   82  75  78 SE10      30.01R
MERIDA         PTSUNNY   84  77  79 SE12      29.99R HX  94
MINATITLAN     MOSUNNY   84  68  58 CALM      29.92
TAPACHULA      MOSUNNY   86  79  79 CALM      29.89S HX  99
TUX. GUTIERREZ PTSUNNY   79  68  69 W8        30.02R
VILLAHERMOSA   MOSUNNY   81  75  83 CALM      29.99R

CENTRAL AMERICA

CITY           SKY/WX    TMP DP  RH WIND       PRES   REMARKS
BELIZE CITY    PTSUNNY   86  79  79 SE9       29.99R HX  99
MANAGUA        MOSUNNY   86  72  62 E12       29.89R HX  92

CARIBBEAN

CITY           SKY/WX    TMP DP  RH WIND       PRES   REMARKS
ARUBA          MOSUNNY   90  77  66 E18       29.94R HX 102
CURACAO        MOSUNNY   90  75  62 E12       29.94S HX 100
KINGSTON       MOSUNNY   86  75  70 SW6       29.97S HX  95
NASSAU         MOSUNNY   88  75  66 CALM      30.06R HX  97
SAN JUAN       MOSUNNY   88  75  66 E15G21    30.04R HX  97
SANTO DOMINGO  MOSUNNY   90  75  62 NE5       30.00S HX 100
ST. CROIX      MOSUNNY   81  73  78 NE8G20    30.03
ST. KITTS      MOSUNNY   84  75  74 NE13      30.00S HX  92
ST. MAARTEN    LGT RAIN  81  75  83 SE14      30.00S
ST. THOMAS     MOSUNNY   91  72  52 E15G22    30.02  HX  98

$$





USA.gov is the U.S. government's official web portal to all federal, state and local government web resources and services.